Year,Month,Day,Hour,Minute,Value (Times are PST for temperature in C)
2010,09,18,09,53,14.30
2010,09,18,09,54,14.40
2010,09,18,09,55,14.40
2010,09,18,09,56,14.40
2010,09,18,09,57,14.40
2010,09,18,09,58,14.40
2010,09,18,09,59,14.40
2010,09,18,10,00,14.40
2010,09,18,10,01,14.50
2010,09,18,10,02,14.50
2010,09,18,10,03,14.50
2010,09,18,10,04,14.60
2010,09,18,10,05,14.60
2010,09,18,10,06,14.60
2010,09,18,10,07,14.60
2010,09,18,10,08,14.60
2010,09,18,10,09,14.60
2010,09,18,10,10,14.60
2010,09,18,10,11,14.60
2010,09,18,10,12,14.60
2010,09,18,10,13,14.60
2010,09,18,10,14,14.60
2010,09,18,10,15,14.60
2010,09,18,10,16,14.60
2010,09,18,10,17,14.70
2010,09,18,10,18,14.70
2010,09,18,10,19,14.70
2010,09,18,10,20,14.70
2010,09,18,10,21,14.70
2010,09,18,10,22,14.70
2010,09,18,10,23,14.70
2010,09,18,10,24,14.70
2010,09,18,10,25,14.70
2010,09,18,10,26,14.70
2010,09,18,10,27,14.70
2010,09,18,10,28,14.70
2010,09,18,10,29,14.80
2010,09,18,10,30,14.80
2010,09,18,10,31,14.80
2010,09,18,10,32,14.80
2010,09,18,10,33,14.80
2010,09,18,10,34,14.80
2010,09,18,10,35,14.80
2010,09,18,10,36,14.80
2010,09,18,10,37,14.80
2010,09,18,10,38,14.80
2010,09,18,10,39,14.90
2010,09,18,10,40,14.90
2010,09,18,10,41,14.90
2010,09,18,10,42,14.90
2010,09,18,10,43,14.90
2010,09,18,10,44,14.90
2010,09,18,10,45,14.90
2010,09,18,10,46,14.90
2010,09,18,10,47,14.90
2010,09,18,10,48,14.90
2010,09,18,10,49,14.90
2010,09,18,10,50,14.90
2010,09,18,10,51,14.90
2010,09,18,10,52,14.90
2010,09,18,10,53,15.00
2010,09,18,10,54,14.90
2010,09,18,10,55,14.90
2010,09,18,10,56,15.00
2010,09,18,10,57,15.00
2010,09,18,10,58,15.00
2010,09,18,10,59,15.00
2010,09,18,11,00,15.00
2010,09,18,11,01,14.90
2010,09,18,11,02,15.00
2010,09,18,11,03,15.00
2010,09,18,11,04,15.00
2010,09,18,11,05,15.00
2010,09,18,11,06,15.00
2010,09,18,11,07,15.00
2010,09,18,11,08,15.00
2010,09,18,11,09,15.00
2010,09,18,11,10,15.00
2010,09,18,11,11,15.00
2010,09,18,11,12,15.00
2010,09,18,11,13,15.00
2010,09,18,11,14,15.00
2010,09,18,11,15,15.00
2010,09,18,11,16,15.00
2010,09,18,11,17,15.00
2010,09,18,11,18,15.00
2010,09,18,11,19,15.00
2010,09,18,11,20,15.00
2010,09,18,11,21,15.00
2010,09,18,11,22,15.00
2010,09,18,11,23,15.00
2010,09,18,11,24,15.00
2010,09,18,11,25,15.00
2010,09,18,11,26,15.00
2010,09,18,11,27,15.00
2010,09,18,11,28,15.00
2010,09,18,11,29,15.00
2010,09,18,11,30,15.00
2010,09,18,11,31,15.00
2010,09,18,11,32,15.00
2010,09,18,11,33,15.00
2010,09,18,11,34,15.00
2010,09,18,11,35,15.00
2010,09,18,11,36,15.00
2010,09,18,11,37,15.00
2010,09,18,11,38,15.00
2010,09,18,11,39,15.00
2010,09,18,11,40,15.00
2010,09,18,11,41,15.00
2010,09,18,11,42,15.00
2010,09,18,11,43,15.00
2010,09,18,11,44,15.00
2010,09,18,11,45,15.00
2010,09,18,11,46,15.00
2010,09,18,11,47,15.00
2010,09,18,11,48,15.00
2010,09,18,11,49,15.00
2010,09,18,11,50,15.00
2010,09,18,11,51,15.00
2010,09,18,11,52,15.00
2010,09,18,11,53,15.00
2010,09,18,11,54,15.00
2010,09,18,11,55,14.90
2010,09,18,11,56,14.80
2010,09,18,11,57,14.80
2010,09,18,11,58,14.70
2010,09,18,11,59,14.70
2010,09,18,12,00,14.70
2010,09,18,12,01,14.70
2010,09,18,12,02,14.60
2010,09,18,12,03,14.60
2010,09,18,12,04,14.60
2010,09,18,12,05,14.60
2010,09,18,12,06,14.60
2010,09,18,12,07,14.60
2010,09,18,12,08,14.60
2010,09,18,12,09,14.60
2010,09,18,12,10,14.60
2010,09,18,12,11,14.60
2010,09,18,12,12,14.70
2010,09,18,12,13,14.70
2010,09,18,12,14,14.70
2010,09,18,12,15,14.70
2010,09,18,12,16,14.70
2010,09,18,12,17,14.70
2010,09,18,12,18,14.80
2010,09,18,12,19,14.80
2010,09,18,12,20,14.70
2010,09,18,12,21,14.70
2010,09,18,12,22,14.70
2010,09,18,12,23,14.80
2010,09,18,12,24,14.80
2010,09,18,12,25,14.80
2010,09,18,12,26,14.80
2010,09,18,12,27,14.80
2010,09,18,12,28,14.80
2010,09,18,12,29,14.90
2010,09,18,12,30,14.90
2010,09,18,12,31,14.90
2010,09,18,12,32,15.00
2010,09,18,12,33,15.00
2010,09,18,12,34,15.00
2010,09,18,12,35,15.00
2010,09,18,12,36,15.00
2010,09,18,12,37,15.00
2010,09,18,12,38,15.00
2010,09,18,12,39,15.00
2010,09,18,12,40,15.00
2010,09,18,12,41,15.00
2010,09,18,12,42,15.00
2010,09,18,12,43,15.00
2010,09,18,12,44,15.00
2010,09,18,12,45,15.00
2010,09,18,12,46,15.00
2010,09,18,12,47,15.00
2010,09,18,12,48,15.00
2010,09,18,12,49,15.00
2010,09,18,12,50,15.00
2010,09,18,12,51,15.00
2010,09,18,12,52,15.00
2010,09,18,12,53,15.00
2010,09,18,12,54,15.00
2010,09,18,12,55,15.00
2010,09,18,12,56,15.00
2010,09,18,12,57,15.00
2010,09,18,12,58,15.00
2010,09,18,12,59,15.00
2010,09,18,13,00,15.00
2010,09,18,13,01,15.00
2010,09,18,13,02,15.00
2010,09,18,13,03,15.00
2010,09,18,13,04,15.00
2010,09,18,13,05,15.00
2010,09,18,13,06,14.90
2010,09,18,13,07,14.90
2010,09,18,13,08,14.90
2010,09,18,13,09,15.00
2010,09,18,13,10,15.00
2010,09,18,13,11,15.00
2010,09,18,13,12,15.00
2010,09,18,13,13,15.00
2010,09,18,13,14,15.00
2010,09,18,13,15,15.00
2010,09,18,13,16,15.00
2010,09,18,13,17,15.00
2010,09,18,13,18,15.00
2010,09,18,13,19,15.00
2010,09,18,13,20,15.00
2010,09,18,13,21,15.00
2010,09,18,13,22,15.00
2010,09,18,13,23,15.00
2010,09,18,13,24,15.00
2010,09,18,13,25,15.00
2010,09,18,13,26,15.00
2010,09,18,13,27,15.00
2010,09,18,13,28,15.00
2010,09,18,13,29,15.00
2010,09,18,13,30,15.00
2010,09,18,13,31,15.00
2010,09,18,13,32,15.00
2010,09,18,13,33,15.00
2010,09,18,13,34,15.00
2010,09,18,13,35,15.00
2010,09,18,13,36,15.00
2010,09,18,13,37,15.00
2010,09,18,13,38,15.00
2010,09,18,13,39,15.00
2010,09,18,13,40,15.00
2010,09,18,13,41,15.00
2010,09,18,13,42,15.00
2010,09,18,13,43,15.00
2010,09,18,13,44,15.00
2010,09,18,13,45,15.00
2010,09,18,13,46,15.00
2010,09,18,13,47,15.00
2010,09,18,13,48,15.00
2010,09,18,13,49,15.00
2010,09,18,13,50,15.00
2010,09,18,13,51,15.00
2010,09,18,13,52,15.10
2010,09,18,13,53,15.00
2010,09,18,13,54,15.00
2010,09,18,13,55,15.00
2010,09,18,13,56,15.10
2010,09,18,13,57,15.10
2010,09,18,13,58,15.20
2010,09,18,13,59,15.20
2010,09,18,14,00,15.20
2010,09,18,14,01,15.20
2010,09,18,14,02,15.30
2010,09,18,14,03,15.40
2010,09,18,14,04,15.40
2010,09,18,14,05,15.40
2010,09,18,14,06,15.40
2010,09,18,14,07,15.50
2010,09,18,14,08,15.50
2010,09,18,14,09,15.60
2010,09,18,14,10,15.60
2010,09,18,14,11,15.60
2010,09,18,14,12,15.60
2010,09,18,14,13,15.60
2010,09,18,14,14,15.60
2010,09,18,14,15,15.70
2010,09,18,14,16,15.70
2010,09,18,14,17,15.70
2010,09,18,14,18,15.80
2010,09,18,14,19,15.80
2010,09,18,14,20,15.80
2010,09,18,14,21,15.90
2010,09,18,14,22,15.90
2010,09,18,14,23,15.80
2010,09,18,14,24,15.80
2010,09,18,14,25,15.80
2010,09,18,14,26,15.80
2010,09,18,14,27,15.70
2010,09,18,14,28,15.70
2010,09,18,14,29,15.70
2010,09,18,14,30,15.70
2010,09,18,14,31,15.70
2010,09,18,14,32,15.70
2010,09,18,14,33,15.70
2010,09,18,14,34,15.70
2010,09,18,14,35,15.70
2010,09,18,14,36,15.70
2010,09,18,14,37,15.70
2010,09,18,14,38,15.70
2010,09,18,14,39,15.70
2010,09,18,14,40,15.60
2010,09,18,14,41,15.60
2010,09,18,14,42,15.60
2010,09,18,14,43,15.60
2010,09,18,14,44,15.60
2010,09,18,14,45,15.50
2010,09,18,14,46,15.50
2010,09,18,14,47,15.50
2010,09,18,14,48,15.50
2010,09,18,14,49,15.50
2010,09,18,14,50,15.50
2010,09,18,14,51,15.50
2010,09,18,14,52,15.50
2010,09,18,14,53,15.50
2010,09,18,14,54,15.60
2010,09,18,14,55,15.60
2010,09,18,14,56,15.60
2010,09,18,14,57,15.60
2010,09,18,14,58,15.60
2010,09,18,14,59,15.60
2010,09,18,15,00,15.70
2010,09,18,15,01,15.70
2010,09,18,15,02,15.70
2010,09,18,15,03,15.80
2010,09,18,15,04,15.80
2010,09,18,15,05,15.80
2010,09,18,15,06,15.90
2010,09,18,15,07,15.90
2010,09,18,15,08,15.90
2010,09,18,15,09,15.90
2010,09,18,15,10,15.90
2010,09,18,15,11,15.90
2010,09,18,15,12,15.90
2010,09,18,15,13,15.90
2010,09,18,15,14,16.00
2010,09,18,15,15,16.00
2010,09,18,15,16,16.00
2010,09,18,15,17,16.00
2010,09,18,15,18,16.00
2010,09,18,15,19,16.10
2010,09,18,15,20,16.10
2010,09,18,15,21,16.10
2010,09,18,15,22,16.10
2010,09,18,15,23,16.20
2010,09,18,15,24,16.20
2010,09,18,15,25,16.20
2010,09,18,15,26,16.20
2010,09,18,15,27,16.20
2010,09,18,15,28,16.20
2010,09,18,15,29,16.20
2010,09,18,15,30,16.30
2010,09,18,15,31,16.30
2010,09,18,15,32,16.30
2010,09,18,15,33,16.30
2010,09,18,15,34,16.30
2010,09,18,15,35,16.40
2010,09,18,15,36,16.40
2010,09,18,15,37,16.40
2010,09,18,15,38,16.40
2010,09,18,15,39,16.40
2010,09,18,15,40,16.40
2010,09,18,15,41,16.40
2010,09,18,15,42,16.40
2010,09,18,15,43,16.40
2010,09,18,15,44,16.30
2010,09,18,15,45,16.40
2010,09,18,15,46,16.30
2010,09,18,15,47,16.30
2010,09,18,15,48,16.30
2010,09,18,15,49,16.30
2010,09,18,15,50,16.30
2010,09,18,15,51,16.30
2010,09,18,15,52,16.40
2010,09,18,15,53,16.40
2010,09,18,15,54,16.40
2010,09,18,15,55,16.40
2010,09,18,15,56,16.40
2010,09,18,15,57,16.40
2010,09,18,15,58,16.40
2010,09,18,15,59,16.40
2010,09,18,16,00,16.30
2010,09,18,16,01,16.30
2010,09,18,16,02,16.30
2010,09,18,16,03,16.30
2010,09,18,16,04,16.20
2010,09,18,16,05,16.20
2010,09,18,16,06,16.20
2010,09,18,16,07,16.20
2010,09,18,16,08,16.20
2010,09,18,16,09,16.20
2010,09,18,16,10,16.20
2010,09,18,16,11,16.20
2010,09,18,16,12,16.10
2010,09,18,16,13,16.10
2010,09,18,16,14,16.10
2010,09,18,16,15,16.10
2010,09,18,16,16,16.10
2010,09,18,16,17,16.10
2010,09,18,16,18,16.20
2010,09,18,16,19,16.10
2010,09,18,16,20,16.10
2010,09,18,16,21,16.10
2010,09,18,16,22,16.10
2010,09,18,16,23,16.10
2010,09,18,16,24,16.10
2010,09,18,16,25,16.10
2010,09,18,16,26,16.10
2010,09,18,16,27,16.10
2010,09,18,16,28,16.10
2010,09,18,16,29,16.10
2010,09,18,16,30,16.10
2010,09,18,16,31,16.10
2010,09,18,16,32,16.10
2010,09,18,16,33,16.10
2010,09,18,16,34,16.10
2010,09,18,16,35,16.10
2010,09,18,16,36,16.10
2010,09,18,16,37,16.10
2010,09,18,16,38,16.10
2010,09,18,16,39,16.10
2010,09,18,16,40,16.10
2010,09,18,16,41,16.10
2010,09,18,16,42,16.10
2010,09,18,16,43,16.10
2010,09,18,16,44,16.10
2010,09,18,16,45,16.10
2010,09,18,16,46,16.10
2010,09,18,16,47,16.10
2010,09,18,16,48,16.10
2010,09,18,16,49,16.10
2010,09,18,16,50,16.20
2010,09,18,16,51,16.20
2010,09,18,16,52,16.10
2010,09,18,16,53,16.10
2010,09,18,16,54,16.10
2010,09,18,16,55,16.10
2010,09,18,16,56,16.10
2010,09,18,16,57,16.10
2010,09,18,16,58,16.10
2010,09,18,16,59,16.10
2010,09,18,17,00,16.10
2010,09,18,17,01,16.10
2010,09,18,17,02,16.10
2010,09,18,17,03,16.20
2010,09,18,17,04,16.20
2010,09,18,17,05,16.20
2010,09,18,17,06,16.20
2010,09,18,17,07,16.20
2010,09,18,17,08,16.20
2010,09,18,17,09,16.30
2010,09,18,17,10,16.30
2010,09,18,17,11,16.30
2010,09,18,17,12,16.30
2010,09,18,17,13,16.30
2010,09,18,17,14,16.30
2010,09,18,17,15,16.30
2010,09,18,17,16,16.30
2010,09,18,17,17,16.30
2010,09,18,17,18,16.30
2010,09,18,17,19,16.30
2010,09,18,17,20,16.30
2010,09,18,17,21,16.30
